Window Rock, AZ

11:08 AM MST on November 20, 2017 (GMT -0700)
Window Rock

Weather History for KRQE - February, 2014

Change the Weather History Date:

Monday, February 24, 2014

  Actual Average Record
Temperature  
Mean Temperature 40 °F -  
Max Temperature 63 °F 48 °F 70 °F (1989)
Min Temperature 17 °F 19 °F -3 °F (1953)
Degree Days  
Heating Degree Days 25    
Moisture  
Dew Point 10 °F    
Average Humidity 36    
Maximum Humidity 62    
Minimum Humidity 13    
Precipitation  
Precipitation 0.00 in - - ()
Sea Level Pressure  
Sea Level Pressure 30.05 in    
Wind  
Wind Speed 4 mph (WSW)    
Max Wind Speed 16 mph    
Max Gust Speed 23 mph    
Visibility 10 miles    
Events      
Averages and records for this station are not official NWS values.
T = Trace of Precipitation, MM = Missing Value Source: NWS Daily Summary

Daily Weather History Graph

Daily Weather History Graph

Search for Another Location

Airport or City:

Trip Planner

Search our weather history database for the weather conditions in past years. The results will help you decide how hot, cold, wet, or windy it might be!

Date:

Astronomy

Feb. 24, 2014 Rise Set
Actual Time 6:52 AM MST 6:06 PM MST
Civil Twilight 6:26 AM MST 6:32 PM MST
Nautical Twilight 5:57 AM MST 7:02 PM MST
Astronomical Twilight 5:27 AM MST 7:31 PM MST
Moon 2:48 AM MST (2/24) 1:17 PM MST (2/24)
Length of Visible Light 12h 06m
Length of Day
11h 14m
Waning Crescent, 27% of the Moon is Illuminated
Feb 24
Waning Crescent
Mar 1
New
Mar 8
First Quarter
Mar 16
Full
Mar 23
Last Quarter

Hourly Weather History & Observations

Time (MST) Temp. Windchill Dew Point Humidity Pressure Visibility Wind Dir Wind Speed Gust Speed Precip Events Conditions
12:53 AM 24.1 °F 17.0 °F 9.0 °F 53% 30.03 in 10.0 mi SSW 5.8 mph - N/A   Clear
1:53 AM 24.1 °F - 8.1 °F 51% 30.03 in 10.0 mi Calm Calm - N/A   Clear
2:53 AM 21.9 °F 17.2 °F 9.0 °F 58% 30.03 in 10.0 mi SSW 3.5 mph - N/A   Clear
3:53 AM 21.9 °F - 8.1 °F 55% 30.03 in 10.0 mi Calm Calm - N/A   Clear
4:53 AM 17.1 °F - 6.1 °F 62% 30.06 in 10.0 mi Calm Calm - N/A   Clear
5:53 AM 18.0 °F 12.7 °F 6.1 °F 60% 30.09 in 10.0 mi North 3.5 mph - N/A   Clear
6:53 AM 19.9 °F - 9.0 °F 62% 30.13 in 10.0 mi Calm Calm - N/A   Clear
7:53 AM 24.1 °F - 10.9 °F 57% 30.17 in 10.0 mi Calm Calm - N/A   Clear
8:53 AM 36.0 °F - 12.9 °F 39% 30.15 in 10.0 mi Calm Calm - N/A   Clear
9:53 AM 48.0 °F - 15.1 °F 27% 30.10 in 10.0 mi Calm Calm - N/A   Clear
10:53 AM 57.0 °F - 14.0 °F 18% 30.05 in 10.0 mi WSW 5.8 mph - N/A   Clear
11:53 AM 61.0 °F - 10.0 °F 13% 30.04 in 10.0 mi SW 11.5 mph - N/A   Clear
12:53 PM 62.1 °F - 10.9 °F 13% 30.00 in 10.0 mi WSW 11.5 mph - N/A   Clear
1:53 PM 63.0 °F - 12.9 °F 14% 29.96 in 10.0 mi WSW 11.5 mph 17.3 mph N/A   Clear
2:53 PM 63.0 °F - 12.9 °F 14% 29.96 in 10.0 mi WSW 16.1 mph 23.0 mph N/A   Clear
3:53 PM 62.1 °F - 10.9 °F 13% 29.96 in 10.0 mi West 12.7 mph 21.9 mph N/A   Clear
4:53 PM 61.0 °F - 10.0 °F 13% 29.99 in 10.0 mi West 12.7 mph - N/A   Clear
5:53 PM 55.9 °F - 10.0 °F 16% 30.02 in 10.0 mi WSW 6.9 mph - N/A   Clear
6:53 PM 46.0 °F - 9.0 °F 22% 30.07 in 10.0 mi Calm Calm - N/A   Clear
7:53 PM 37.9 °F - 9.0 °F 30% 30.10 in 10.0 mi Calm Calm - N/A   Clear
8:53 PM 36.0 °F 33.3 °F 9.0 °F 33% 30.06 in 10.0 mi NW 3.5 mph - N/A   Clear
9:53 PM 28.9 °F - 9.0 °F 43% 30.05 in 10.0 mi Calm Calm - N/A   Clear
10:53 PM 30.0 °F 26.5 °F 9.0 °F 41% 30.01 in 10.0 mi NE 3.5 mph - N/A   Clear
11:53 PM 26.1 °F - 8.1 °F 47% 30.02 in 10.0 mi Calm Calm - N/A   Clear